If you wish to contribute or participate in the discussions about articles you are invited to join SKYbrary as a registered user

 Actions

Châteauroux-Déols "Marcel Dassault" Airport

From SKYbrary Wiki

LFLX /
Revision as of 20:15, 16 February 2015 by Timo.Kouwenhoven (talk | contribs) (LF Airports CSV import)
(diff) ← Older revision | Latest revision (diff) | Newer revision → (diff)
Airport
ICAO: LFLX – IATA: CHR
Summary
Name Châteauroux-Déols "Marcel Dassault" Airport
Region Europe
Territory France FR.gif
Location , Centre
Serving Chateauroux
Elevation 161.239 m
529 ft
529 ft161.239 m
Type medium airport
Coordinates 46° 51' 43.90" N, 1° 43' 50.40" E
Runways
Designator Length Width Surface ROPS
4/22 3500 m11,482.94 ft
45 m147.638 ft
CON no/no


METAR
Observation LFLX 171730Z AUTO 20010KT 9999 SCT026 15/13 Q1012 TEMPO 20015G25KT 4000 -SHRA BKN012 SCT020TCU
Station Chateauroux
Date/Time 17 October 2019 17:30:00
Wind direction 200°
Wind speed 10 kts
Lowest cloud amount scattered clouds
Temperature 15°C
Dew point 13°C
Humidity 87%
QNH 1012 hPa
Weather condition n/a